Flight Track Log - Related Links

Times and Time Zones

All times are in EDT time to prevent confusion due to time zone crossing. See the N682RW flight status page for this flight to view local times or setup timezone preferences in your user account.

Time Position Orientation Groundspeed Altitude Reporting Facility
EDT Latitude Longitude Course Direction KTS MPH feet Rate Location/Type
Tue 11:58:17 PM 41.8042 -87.7039 86° East 187 215 2,900  Level Chicago Center
Tue 11:59:17 PM 41.8086 -87.6178 86° East 230 265 5,400 2,975 Climbing Chicago Center
Wed 12:00:18 AM 41.7967 -87.5136 99° East 279 321 8,900 3,273 Climbing Chicago Center
Wed 12:01:18 AM 41.7842 -87.4011 98° East 302 348 12,000 3,421 Climbing Chicago Center
Wed 12:02:19 AM 41.7886 -87.2583 88° East 327 376 15,800 2,975 Climbing Chicago Center
Wed 12:03:19 AM 41.7619 -87.1436 107° East 325 374 18,000 1,587 Climbing Chicago Center
Wed 12:04:20 AM 41.7856 -87.0058 77° East 377 434 19,000 496 Climbing Chicago Center
Wed 12:05:20 AM 41.8064 -86.8536 80° East 409 471 19,000  Level Chicago Center
Wed 12:06:21 AM 41.8253 -86.7000 81° East 416 479 19,000  Level Chicago Center
Wed 12:07:21 AM 41.8444 -86.5464 80° East 412 474 19,000  Level Chicago Center
Wed 12:08:22 AM 41.8639 -86.3983 80° East 404 465 19,000  Level Chicago Center
Wed 12:09:22 AM 41.8836 -86.2486 80° East 407 468 19,000  Level Chicago Center
Wed 12:10:23 AM 41.9028 -86.0986 80° East 408 470 19,000  Level Chicago Center
Wed 12:11:23 AM 41.9211 -85.9489 81° East 406 467 19,000  Level Chicago Center
Wed 12:12:23 AM 41.9400 -85.7953 81° East 413 475 19,000  Level Chicago Center
Wed 12:13:24 AM 41.9592 -85.6433 80° East 411 473 19,000  Level Chicago Center
Wed 12:14:24 AM 41.9783 -85.4925 80° East 409 471 19,000  Level Chicago Center
Wed 12:15:25 AM 41.9778 -85.3469 90° East 388 447 19,000 -496 Level Chicago Center
Wed 12:16:25 AM 41.9767 -85.2053 91° East 378 435 18,000 -1,140 Descending Chicago Center
Wed 12:17:26 AM 41.9769 -85.0661 90° East 374 430 16,700 -1,388 Descending Chicago Center
Wed 12:18:26 AM 41.9769 -84.9308 90° East 363 418 15,200 -1,450 Descending Chicago Center
Wed 12:19:26 AM 41.9761 -84.7953 90° East 362 417 13,800 -1,339 Descending Chicago Center
Wed 12:20:27 AM 41.9753 -84.6792 91° East 366 421 12,500 -1,091 Descending Chicago Center
Wed 12:21:27 AM 41.9750 -84.5161 90° East 365 420 11,600 -595 Descending Chicago Center
Wed 12:22:28 AM 41.9753 -84.3775 90° East 370 426 11,300 -303 Descending Chicago Center
Wed 12:23:26 AM 41.9725 -84.2475 92° East 365 420 11,000 -153 Descending Cleveland Center
Wed 12:24:26 AM 41.9711 -84.1150 91° East 358 412 11,000  Level Cleveland Center
Wed 12:24:27 AM 41.9725 -84.1283 278° West 360 414 11,000  Level Cleveland Center
Wed 12:25:27 AM 42.0028 -83.9878 74° East 365 420 11,000  Level Cleveland Center
Wed 12:26:27 AM 42.0603 -83.8972 49° Northeast 363 418 11,000  Level Cleveland Center
Wed 12:26:28 AM 42.0697 -83.8881 36° Northeast 364 419 11,000 -393 Level Cleveland Center
Wed 12:27:28 AM 42.1281 -83.7961 49° Northeast 363 418 10,600 -550 Descending Cleveland Center
Wed 12:28:28 AM 42.1914 -83.7050 47° Northeast 339 390 9,900 -885 Descending Cleveland Center
Wed 12:28:29 AM 42.1986 -83.6986 33° Northeast 307 353 9,700 -1,600 Descending Cleveland Center
Wed 12:29:28 AM 42.2475 -83.6261 48° Northeast 297 342 8,300 -1,800 Descending Cleveland Center
Wed 12:29:29 AM 42.2581 -83.6114 46° Northeast 287 330 7,900 -1,400 Descending Cleveland Center
Wed 12:30:28 AM 42.3117 -83.5356 46° Northeast 288 331 6,900 -984 Descending Cleveland Center
Wed 12:30:30 AM 42.3122 -83.5347 48° Northeast 271 312 6,900 -984 Level Cleveland Center
Wed 12:31:29 AM 42.3531 -83.4775 46° Northeast 265 305 5,900 -1,082 Descending Cleveland Center
Wed 12:31:31 AM 42.3639 -83.4658 39° Northeast 257 296 5,800 -1,400 Descending Cleveland Center
Wed 12:32:29 AM 42.3961 -83.3908 60° Northeast 262 302 4,500 -1,400 Descending Cleveland Center
Wed 12:32:31 AM 42.4017 -83.3836 44° Northeast 258 297 4,400 -1,000 Descending Cleveland Center
Wed 12:33:29 AM 42.3925 -83.3053 99° East 250 288 3,500 -885 Descending Cleveland Center
Wed 12:33:32 AM 42.3856 -83.2964 137° Southeast 234 269 3,500 -197 Level Cleveland Center
Wed 12:34:30 AM 42.3458 -83.2792 162° South 184 212 3,300 -200 Descending Cleveland Center
Wed 12:34:32 AM 42.3406 -83.2817 199° South 149 171 3,300 -700 Level Cleveland Center
Wed 12:35:30 AM 42.3078 -83.3039 207° Southwest 153 176 2,600 -787 Descending Cleveland Center
Wed 12:35:33 AM 42.3028 -83.3103 223° Southwest 150 173 2,500 -800 Descending Cleveland Center
Wed 12:36:30 AM 42.2711 -83.3331 208° Southwest 151 174 1,800 -885 Descending Cleveland Center
Wed 12:36:34 AM 42.2672 -83.3361 210° Southwest 131 151 1,600 -800 Descending Cleveland Center
Wed 12:37:30 AM 42.2397 -83.3556 208° Southwest 137 158 1,000 -700 Descending Cleveland Center
Wed 12:37:34 AM 42.2358 -83.3600 220° Southwest 132 152 900 -393 Descending Cleveland Center
Wed 12:38:31 AM 42.2103 -83.3767 206° Southwest 135 155 600 -316 Descending Cleveland Center

Login

Don't have an account? Register now (free) for customized features, flight alerts, and more!